Regional Weather Roundup
Issued by NWS

Home | Current Version | Previous Version | Text Only | Print | Product List | Glossary Off
Versions: 1 2 3 4 5 6 7 8 9 10 11 12 13 14 15 16 17 18 19 20 21 22 23 24 25 26 27 28 29 30 31 32 33 34 35 36 37 38 39 40 41 42 43 44 45 46 47 48 49 50

000
ASUS45 KCYS 212310
RWRWY

WYOMING REGIONAL WEATHER ROUNDUP
NATIONAL WEATHER SERVICE CHEYENNE WY
400 PM MST SAT JAN 21 2017

NOTE:  "FAIR" INDICATES FEW OR NO CLOUDS BELOW 12,000 FEET
WITH NO SIGNIFICANT WEATHER AND/OR OBSTRUCTIONS TO VISIBILITY.

WYZ001-220000-
YELLOWSTONE NATIONAL PARK

CITY           SKY/WX    TMP DP  RH WIND       PRES   REMARKS
LK YELLOWSTONE   N/A     23  20  88 CALM      29.52R
W YELLOWSTONE  NOT AVBL

$$
WYZ002>013-054>058-071-098>099-220000-
NORTHERN WYOMING

CITY           SKY/WX    TMP DP  RH WIND       PRES   REMARKS
JACKSON        PTSUNNY   21  18  86 CALM      29.55R
CODY           FAIR      23  16  74 NE6       29.49R WCI  16
GREYBULL       FAIR      14  10  84 NW5       29.53R WCI   6
WORLAND        FAIR      23  18  81 CALM      29.51R
SHERIDAN       FAIR      32  22  66 CALM      29.49R
BUFFALO        CLOUDY    34  24  67 CALM      29.48R
GILLETTE       FAIR      36  28  73 E5        29.46R WCI  32
HULETT         FAIR      34  30  86 CALM      29.48R
NEWCASTLE      FAIR      30  30 100 NW8       29.47R WCI  23

$$
WYZ014>020-022>026-101>103-220000-
CENTRAL WYOMING

CITY           SKY/WX    TMP DP  RH WIND       PRES   REMARKS
BIG PINEY      CLOUDY    21  15  78 CALM      29.54R
PINEDALE       MOCLDY    21  14  73 CALM      29.54R
DUBOIS         NOT AVBL
LANDER         CLOUDY    20  14  77 CALM      29.48R
RIVERTON       PTSUNNY  N/A N/A N/A E3        29.49R HAZE
CASPER         FAIR      35  22  58 SW10      29.46R WCI  27
DOUGLAS        FAIR      39  24  55 NW8       29.47R WCI  33

$$
WYZ021-027>030-104>119-220000-
SOUTHERN WYOMING

CITY           SKY/WX    TMP DP  RH WIND       PRES   REMARKS
EVANSTON       CLOUDY    25  20  81 W17       29.61R WCI  12
ROCK SPRINGS   LGT SNOW  20  17  88 SW16      29.56R FOG     WCI   6
RAWLINS        CLOUDY    28  19  69 W10       29.49R WCI  19
LARAMIE        CLOUDY    28  20  71 N9        29.44R WCI  19
CHEYENNE       MOCLDY    39  19  44 SE3       29.44R
TORRINGTON     FAIR      41  25  53 N5        29.44R

$$



USA.gov is the U.S. government's official web portal to all federal, state and local government web resources and services.